STARLINK-34167, 64228

Orbit data source: Space-Track

STARLINK-34167, 64228 is a payload satellite owned by SpaceX/Seattle (US) in LEO that was launched on Sat, 31 May 2025 UTC via an FALCON 9 launch vehicle from the Air Force Western Test Range (AFWTR). Payload-class satellites include a variety of spacecraft equipped with specific instruments for various scientific and technological missions. These include communications satellites like Starlink; space stations such as the ISS; scientific satellites like the Hubble; Earth observation satellites from companies like Planet Labs, Umbra, and HawkEye 360; GPS; miniature CubeSats for education and research; and military/defense satellites.

Loading next visibility...
Identifier
64228, 2025-117AB
Orbit
LEO
Country
Flag of USUS
Related business
Manufacturer
SpaceX/Seattle
Mission
Operational Commercial Communications
Bus & Motor
STARLINK V2MO, Unknown motor
Mass
575 kg wet, ~530 kg dry
Launch date (UTC)
2025-05-31 (1 year ago)
Launch vehicle
FALCON 9
Launch site
Air Force Western Test Range (AFWTR)
Object type
Payload
Rocket body
Debris
Shape & HBR
Box + 2 Pan, 17.7 m
Radar Cross Section
36.964 m², Large (>1 m²)

Expand to show TLE details & history
Last TLE update: 1 day ago

TLE from 1 day ago
0 STARLINK-34167
1 64228U 25117AB  26170.71092678  .00039036  00000-0  11601-2 0  9996
2 64228  53.1597 283.7375 0001149  79.2488 280.8644 15.34409295 60204
Epoch: 2026-06-19T17:03Z
TLE epoch observation values (Epoch: 2026-06-19T17:03:44.073Z)
Latitude
-0.00003°
Longitude
119.86785°
Altitude
463.429 km
Speed
7.636 km/s
True Right ascension
18h 54m 56s
True Declination
0° 00' 00"
Sunlit
Object was in full shadow at epoch
Visualization orbit readout
Latitude
Unknown
Longitude
Unknown
Altitude
Unknown
Speed
Unknown
Apparent Right ascension
Unknown
Apparent Declination
Unknown
Sunlit
N/A
Visualization observer readout
Local Sidereal Time
10:19:06
Azimuth
Unknown
Elevation
Unknown
Doppler factor
Unknown
Orbital elements
Apogee altitude
463.719 km
Perigee altitude
462.147 km
Semi-major axis
6,841.07 km
Eccentricity
0.00011
Inclination
53.1597°
RAAN
283.7375°
Arg. of periapsis
79.2488°
True anomaly
280.85147°
Mean anomaly
280.8644°
Eccentric anomaly
280.85793°
Mean motion
3.83581 °/min
Orbital period
93.85 mins
BSTAR
0.0011601
Loading maneuver chart data...
Computing Atmospheric mass density...
Loading historical data...
Loading historical data...
Loading historical data...
Loading historical data...
Loading historical data...
Loading historical data...
Loading historical data...

Documentation

Showing up to 5 results
|